,,Stat6,,Stat2,,Stat8,,Stat9,,Stat10,,Wind1,,Wind1,
time,status,PA1M_AVG,status,PR1M_SUM,status,RH1M_AVG,status,SR1M_AVG,status,TA1M_AVG,status,W1dAve1m,status,W1sAve1m,
2007-01-30, 08:15:00,VALID,919.701,VALID,0,VALID,69.9072,VALID,958.16,VALID,24.4,VALID,29,VALID,3.75089,
2007-01-30, 08:16:00,VALID,919.68,VALID,0,VALID,70.7851,VALID,887.826,VALID,24.2444,VALID,32,VALID,3.64517,
2007-01-30, 08:17:00,VALID,919.682,VALID,0,VALID,70.2549,VALID,960.385,VALID,24.0344,VALID,30,VALID,3.38796,
2007-01-30, 08:18:00,VALID,919.668,VALID,0,VALID,72.2322,VALID,921.176,VALID,23.9375,VALID,346,VALID,2.3811,
2007-01-30, 08:19:01,VALID,919.638,VALID,0,VALID,71.5748,VALID,956.751,VALID,23.9948,VALID,8,VALID,3.28274,
2007-01-30, 08:20:01,VALID,919.59,VALID,0,VALID,72.3912,VALID,940.466,VALID,24.2174,VALID,308,VALID,3.75534,
2007-01-30, 08:21:01,VALID,919.634,VALID,0,VALID,70.7546,VALID,646.273,VALID,24.48,VALID,315,VALID,3.23342,
2007-01-30, 08:22:00,VALID,919.593,VALID,0,VALID,69.2007,VALID,879.811,VALID,24.4771,VALID,335,VALID,3.14299,
2007-01-30, 08:23:01,VALID,919.576,VALID,0,VALID,70.7877,VALID,1002.4,VALID,24.4338,VALID,306,VALID,2.97999,
2007-01-30, 08:24:01,VALID,919.554,VALID,0,VALID,69.7106,VALID,996.877,VALID,24.5734,VALID,314,VALID,2.17485,
2007-01-30, 08:25:01,VALID,919.525,VALID,0,VALID,70.101,VALID,992.139,VALID,24.7931,VALID,309,VALID,2.94727,
2007-01-30, 08:26:01,VALID,919.529,VALID,0,VALID,69.661,VALID,971.592,VALID,24.89,VALID,3,VALID,2.98906,
2007-01-30, 08:27:00,VALID,919.531,VALID,0,VALID,69.8848,VALID,910.139,VALID,24.9511,VALID,13,VALID,2.04045,
2007-01-30, 08:28:00,VALID,919.534,VALID,0,VALID,67.6379,VALID,1018.2,VALID,24.9511,VALID,9,VALID,3.36062,
2007-01-30, 08:29:01,VALID,919.49,VALID,0,VALID,69.9395,VALID,1006.33,VALID,24.6994,VALID,28,VALID,2.76448,
2007-01-30, 08:30:00,VALID,919.526,VALID,0,VALID,69.8798,VALID,982.001,VALID,24.6859,VALID,355,VALID,2.98613,
2007-01-30, 08:31:01,VALID,919.517,VALID,0,VALID,69.2274,VALID,968.688,VALID,24.5728,VALID,349,VALID,3.40153,
2007-01-30, 08:32:00,VALID,919.513,VALID,0,VALID,70.0095,VALID,796.401,VALID,24.2852,VALID,352,VALID,2.67492,
2007-01-30, 08:33:01,VALID,919.497,VALID,0,VALID,70.5232,VALID,893.939,VALID,24.2138,VALID,318,VALID,2.4375,
2007-01-30, 08:34:00,VALID,919.498,VALID,0,VALID,71.9563,VALID,866.99,VALID,24.3046,VALID,317,VALID,1.87464,
2007-01-30, 08:35:00,VALID,919.467,VALID,0,VALID,71.6524,VALID,800.884,VALID,24.5111,VALID,306,VALID,3.28285,
2007-01-30, 08:36:01,VALID,919.47,VALID,0,VALID,70.6618,VALID,878.656,VALID,24.5595,VALID,306,VALID,3.75963,
2007-01-30, 08:37:00,VALID,919.459,VALID,0,VALID,69.8747,VALID,883.92,VALID,24.5625,VALID,287,VALID,3.05793,
2007-01-30, 08:38:01,VALID,919.427,VALID,0,VALID,69.4805,VALID,886.858,VALID,24.6015,VALID,286,VALID,2.39732,
2007-01-30, 08:39:00,VALID,919.411,VALID,0,VALID,69.7081,VALID,875.107,VALID,24.8145,VALID,289,VALID,1.98492,
2007-01-30, 08:40:00,VALID,919.387,VALID,0,VALID,68.1618,VALID,884.956,VALID,25.0768,VALID,310,VALID,2.72869,
2007-01-30, 08:41:00,VALID,919.4,VALID,0,VALID,69.3889,VALID,901.852,VALID,25.0439,VALID,325,VALID,3.29836,
2007-01-30, 08:42:01,VALID,919.38,VALID,0,VALID,67.3175,VALID,906.131,VALID,24.8019,VALID,348,VALID,2.28609,
2007-01-30, 08:43:00,VALID,919.348,VALID,0,VALID,68.9884,VALID,506.114,VALID,24.7725,VALID,351,VALID,1.21786,
2007-01-30, 08:44:01,VALID,919.332,VALID,0,VALID,68.9566,VALID,565.92,VALID,24.7531,VALID,308,VALID,2.30996,
2007-01-30, 08:45:00,VALID,919.327,VALID,0,VALID,69.7488,VALID,867.126,VALID,24.7728,VALID,310,VALID,2.7182,
2007-01-30, 08:46:00,VALID,919.318,VALID,0,VALID,69.2529,VALID,863.407,VALID,24.6371,VALID,329,VALID,3.39025,
2007-01-30, 08:47:01,VALID,919.313,VALID,0,VALID,70.4253,VALID,857.634,VALID,24.5143,VALID,309,VALID,2.77065,
2007-01-30, 08:48:00,VALID,919.288,VALID,0,VALID,68.5001,VALID,863.017,VALID,24.5266,VALID,328,VALID,2.39258,
2007-01-30, 08:49:00,VALID,919.258,VALID,0,VALID,69.8836,VALID,859.23,VALID,24.5424,VALID,2,VALID,1.98491,
2007-01-30, 08:50:00,VALID,919.251,VALID,0,VALID,70.19,VALID,844.83,VALID,24.7851,VALID,7,VALID,1.01199,
2007-01-30, 08:51:00,VALID,919.232,VALID,0,VALID,68.7696,VALID,835.678,VALID,25.0953,VALID,341,VALID,1.21113,
2007-01-30, 08:52:01,VALID,919.22,VALID,0,VALID,68.4072,VALID,849.296,VALID,25.3244,VALID,355,VALID,2.59473,
2007-01-30, 08:53:01,VALID,919.162,VALID,0,VALID,66.978,VALID,846.189,VALID,25.1431,VALID,7,VALID,2.23377,
2007-01-30, 08:54:00,VALID,919.128,VALID,0,VALID,67.5578,VALID,838.513,VALID,24.9492,VALID,328,VALID,3.07235,
2007-01-30, 08:55:01,VALID,919.108,VALID,0,VALID,68.9909,VALID,831.093,VALID,24.7883,VALID,4,VALID,2.07631,
2007-01-30, 08:56:00,VALID,919.115,VALID,0,VALID,69.5644,VALID,832.112,VALID,24.7877,VALID,22,VALID,2.85122,
2007-01-30, 08:57:00,VALID,919.087,VALID,0,VALID,67.6023,VALID,842.827,VALID,24.8197,VALID,28,VALID,2.52288,
2007-01-30, 08:58:00,VALID,919.096,VALID,0,VALID,68.5051,VALID,835.559,VALID,24.9683,VALID,343,VALID,1.60332,
2007-01-30, 08:59:00,VALID,919.075,VALID,0,VALID,67.8058,VALID,847.462,VALID,25.1884,VALID,40,VALID,1.39789,
2007-01-30, 09:00:01,VALID,919.073,VALID,0,VALID,68.1847,VALID,837.019,VALID,25.3561,VALID,6,VALID,1.91741,
2007-01-30, 09:01:00,VALID,919.051,VALID,0,VALID,66.9652,VALID,837.002,VALID,25.2918,VALID,19,VALID,3.26181,
2007-01-30, 09:02:00,VALID,919.042,VALID,0,VALID,68.7404,VALID,856.598,VALID,25.169,VALID,355,VALID,2.05007,
2007-01-30, 09:03:00,VALID,919.023,VALID,0,VALID,68.523,VALID,868.434,VALID,25.169,VALID,350,VALID,1.9939,
2007-01-30, 09:04:00,VALID,919.044,VALID,0,VALID,68.4161,VALID,875.039,VALID,25.201,VALID,327,VALID,2.72692,
2007-01-30, 09:05:01,VALID,919.056,VALID,0,VALID,69.0761,VALID,841.213,VALID,25.233,VALID,341,VALID,2.52493,
2007-01-30, 09:06:00,VALID,919.016,VALID,0,VALID,68.8866,VALID,867.398,VALID,25.2879,VALID,302,VALID,2.85342,
2007-01-30, 09:07:01,VALID,919.003,VALID,0,VALID,67.2539,VALID,862.439,VALID,25.359,VALID,288,VALID,3.41292,
2007-01-30, 09:08:00,VALID,919.026,VALID,0,VALID,67.8808,VALID,860.419,VALID,25.5917,VALID,325,VALID,2.50465,
2007-01-30, 09:09:00,VALID,919.059,VALID,0,VALID,67.5832,VALID,874.224,VALID,25.7426,VALID,300,VALID,2.64551,
2007-01-30, 09:10:01,VALID,919.049,VALID,0,VALID,65.5995,VALID,887.367,VALID,25.7914,VALID,356,VALID,2.23698,
2007-01-30, 09:11:01,VALID,919.033,VALID,0,VALID,66.3625,VALID,881.169,VALID,25.7274,VALID,338,VALID,1.82546,
2007-01-30, 09:12:00,VALID,918.986,VALID,0,VALID,64.8633,VALID,876.194,VALID,25.6682,VALID,357,VALID,1.80646,
2007-01-30, 09:13:01,VALID,918.965,VALID,0,VALID,66.0039,VALID,854.798,VALID,25.646,VALID,68,VALID,1.32685,
2007-01-30, 09:14:00,VALID,918.939,VALID,0,VALID,67.2514,VALID,558.432,VALID,25.6495,VALID,336,VALID,2.53258,
2007-01-30, 09:15:00,VALID,918.937,VALID,0,VALID,68.6679,VALID,554.577,VALID,25.5202,VALID,339,VALID,1.64535,
2007-01-30, 09:16:00,VALID,918.91,VALID,0,VALID,67.8236,VALID,866.939,VALID,25.4682,VALID,19,VALID,2.29545,
2007-01-30, 09:17:00,VALID,918.893,VALID,0,VALID,68.5179,VALID,863.968,VALID,25.4488,VALID,6,VALID,2.32485,
2007-01-30, 09:18:01,VALID,918.847,VALID,0,VALID,68.5128,VALID,870.403,VALID,25.4388,VALID,34,VALID,2.68636,
2007-01-30, 09:19:00,VALID,918.883,VALID,0,VALID,67.8032,VALID,870.454,VALID,25.3225,VALID,33,VALID,2.87459,
2007-01-30, 09:20:01,VALID,918.85,VALID,0,VALID,68.1186,VALID,882.935,VALID,25.2197,VALID,8,VALID,3.07249,
2007-01-30, 09:21:00,VALID,918.798,VALID,0,VALID,68.659,VALID,894.55,VALID,25.0911,VALID,6,VALID,3.34468,
2007-01-30, 09:22:01,VALID,918.807,VALID,0,VALID,68.7188,VALID,923.995,VALID,24.896,VALID,21,VALID,3.55796,
2007-01-30, 09:23:01,VALID,918.766,VALID,0,VALID,68.6794,VALID,955.392,VALID,24.822,VALID,41,VALID,3.19327,
2007-01-30, 09:24:00,VALID,918.74,VALID,0,VALID,69.5288,VALID,970.692,VALID,24.8246,VALID,358,VALID,3.48304,
2007-01-30, 09:25:01,VALID,918.722,VALID,0,VALID,69.5657,VALID,870.794,VALID,24.7826,VALID,12,VALID,2.45113,
2007-01-30, 09:26:01,VALID,918.733,VALID,0,VALID,69.4614,VALID,719.036,VALID,24.9186,VALID,11,VALID,2.91043,
2007-01-30, 09:27:01,VALID,918.689,VALID,0,VALID,70.0781,VALID,653.032,VALID,24.8178,VALID,17,VALID,3.14787,
2007-01-30, 09:28:01,VALID,918.708,VALID,0,VALID,69.4614,VALID,903.839,VALID,24.7338,VALID,24,VALID,3.09411,
2007-01-30, 09:29:01,VALID,918.7,VALID,0,VALID,69.7551,VALID,806.182,VALID,24.8081,VALID,31,VALID,2.77458,
2007-01-30, 09:30:01,VALID,918.669,VALID,0,VALID,69.2745,VALID,664.154,VALID,24.9092,VALID,35,VALID,2.47542,
2007-01-30, 09:31:00,VALID,918.648,VALID,0,VALID,69.6178,VALID,827.985,VALID,24.896,VALID,21,VALID,2.84126,
2007-01-30, 09:32:01,VALID,918.649,VALID,0,VALID,70.9657,VALID,815.64,VALID,24.8243,VALID,21,VALID,3.42764,
2007-01-30, 09:33:01,VALID,918.64,VALID,0,VALID,69.3902,VALID,816.489,VALID,24.8255,VALID,47,VALID,2.98189,
2007-01-30, 09:34:01,VALID,918.643,VALID,0,VALID,70.5308,VALID,818.731,VALID,24.8837,VALID,49,VALID,2.64613,
2007-01-30, 09:35:01,VALID,918.611,VALID,0,VALID,69.7411,VALID,818.323,VALID,24.9897,VALID,40,VALID,2.78032,
2007-01-30, 09:36:01,VALID,918.613,VALID,0,VALID,69.586,VALID,816.065,VALID,25.0775,VALID,51,VALID,2.28164,
2007-01-30, 09:37:01,VALID,918.615,VALID,0,VALID,68.7773,VALID,816.048,VALID,25.2375,VALID,39,VALID,1.875,
2007-01-30, 09:38:01,VALID,918.584,VALID,0,VALID,68.715,VALID,829.276,VALID,25.326,VALID,17,VALID,2.92878,
2007-01-30, 09:39:00,VALID,918.557,VALID,0,VALID,69.2134,VALID,856.972,VALID,25.0343,VALID,11,VALID,4.266,
2007-01-30, 09:40:01,VALID,918.58,VALID,0,VALID,70.2371,VALID,865.734,VALID,24.7183,VALID,25,VALID,3.03811,
2007-01-30, 09:41:01,VALID,918.549,VALID,0,VALID,70.4215,VALID,578.231,VALID,24.5946,VALID,23,VALID,2.60423,
2007-01-30, 09:42:01,VALID,918.541,VALID,0,VALID,71.5824,VALID,735.559,VALID,24.4557,VALID,10,VALID,1.86083,
2007-01-30, 09:43:01,VALID,918.498,VALID,0,VALID,71.4934,VALID,869.215,VALID,24.5438,VALID,40,VALID,2.55705,
2007-01-30, 09:44:01,VALID,918.493,VALID,0,VALID,70.6694,VALID,733.827,VALID,24.6311,VALID,35,VALID,3.12128,
2007-01-30, 09:45:00,VALID,918.437,VALID,0,VALID,70.1862,VALID,613.67,VALID,24.5051,VALID,33,VALID,2.70858,
2007-01-30, 09:46:01,VALID,918.429,VALID,0,VALID,71.5532,VALID,774.462,VALID,24.4105,VALID,36,VALID,3.35885,
2007-01-30, 09:47:01,VALID,918.405,VALID,0,VALID,72.3212,VALID,761.081,VALID,24.3397,VALID,13,VALID,3.76686,
2007-01-30, 09:48:01,VALID,918.425,VALID,0,VALID,73.0893,VALID,630.549,VALID,24.3012,VALID,8,VALID,2.42598,
2007-01-30, 09:49:01,VALID,918.425,VALID,0,VALID,72.3696,VALID,645.951,VALID,24.3397,VALID,19,VALID,2.68527,
2007-01-30, 09:50:01,VALID,918.422,VALID,0,VALID,72.1076,VALID,795.518,VALID,24.4657,VALID,21,VALID,2.78359,
2007-01-30, 09:51:01,VALID,918.402,VALID,0,VALID,72.1623,VALID,783.665,VALID,24.5071,VALID,27,VALID,2.46626,
2007-01-30, 09:52:01,VALID,918.425,VALID,0,VALID,71.7071,VALID,787.724,VALID,24.5791,VALID,24,VALID,3.08203,
2007-01-30, 09:53:01,VALID,918.403,VALID,0,VALID,72.6417,VALID,698.099,VALID,24.6578,VALID,329,VALID,1.56555,
2007-01-30, 09:54:01,VALID,918.38,VALID,0,VALID,73.3919,VALID,767.398,VALID,24.9089,VALID,302,VALID,2.36283,
2007-01-30, 09:55:01,VALID,918.418,VALID,0,VALID,70.4316,VALID,785.329,VALID,25.3031,VALID,9,VALID,1.61033,
2007-01-30, 09:56:01,VALID,918.376,VALID,0,VALID,69.5835,VALID,790.865,VALID,25.5354,VALID,22,VALID,1.23946,
2007-01-30, 09:57:01,VALID,918.387,VALID,0,VALID,68.9146,VALID,772.203,VALID,25.781,VALID,333,VALID,1.27128,
2007-01-30, 09:58:01,VALID,918.334,VALID,0,VALID,67.8414,VALID,740.296,VALID,25.7969,VALID,295,VALID,3.36737,
2007-01-30, 09:59:01,VALID,918.404,VALID,0,VALID,68.4479,VALID,653.151,VALID,25.687,VALID,340,VALID,1.8294,
2007-01-30, 10:00:01,VALID,918.376,VALID,0,VALID,67.8045,VALID,679.148,VALID,25.5454,VALID,30,VALID,2.75,
2007-01-30, 10:01:01,VALID,918.377,VALID,0,VALID,68.3869,VALID,723.417,VALID,25.2714,VALID,44,VALID,3.56131,
2007-01-30, 10:02:01,VALID,918.356,VALID,0,VALID,69.2185,VALID,722.178,VALID,24.9548,VALID,34,VALID,3.01579,
2007-01-30, 10:03:01,VALID,918.315,VALID,0,VALID,70.068,VALID,709.442,VALID,24.7683,VALID,18,VALID,2.34737,
2007-01-30, 10:04:01,VALID,918.307,VALID,0,VALID,70.6732,VALID,702.276,VALID,24.7121,VALID,360,VALID,2.25087,
2007-01-30, 10:05:01,VALID,918.302,VALID,0,VALID,72.6391,VALID,704.025,VALID,24.7425,VALID,349,VALID,2.4851,
2007-01-30, 10:06:01,VALID,918.295,VALID,0,VALID,72.2119,VALID,708.219,VALID,24.8488,VALID,360,VALID,1.80796,
2007-01-30, 10:07:00,VALID,918.288,VALID,0,VALID,71.5913,VALID,707.863,VALID,25.0646,VALID,342,VALID,1.38507,
2007-01-30, 10:08:00,VALID,918.271,VALID,0,VALID,68.7518,VALID,720.683,VALID,25.2356,VALID,357,VALID,2.22712,
2007-01-30, 10:09:00,VALID,918.251,VALID,0,VALID,69.6636,VALID,740.364,VALID,25.1971,VALID,307,VALID,2.4881,
2007-01-30, 10:10:00,VALID,918.26,VALID,0,VALID,70.6771,VALID,769.232,VALID,25.158,VALID,350,VALID,2.96303,
2007-01-30, 10:11:00,VALID,918.287,VALID,0,VALID,70.5817,VALID,787.452,VALID,25.262,VALID,21,VALID,2.20767,
2007-01-30, 10:12:00,VALID,918.289,VALID,0,VALID,69.16,VALID,795.637,VALID,25.3684,VALID,347,VALID,2.44531,
2007-01-30, 10:13:00,VALID,918.27,VALID,0,VALID,68.4606,VALID,804.959,VALID,25.3134,VALID,333,VALID,3.91134,
2007-01-30, 10:14:00,VALID,918.268,VALID,0,VALID,68.4963,VALID,619.189,VALID,25.0549,VALID,10,VALID,3.10026,
2007-01-30, 10:15:00,VALID,918.214,VALID,0,VALID,70.2358,VALID,461.437,VALID,24.8352,VALID,350,VALID,3.17347,
2007-01-30, 10:16:00,VALID,918.231,VALID,0,VALID,70.7063,VALID,356.19,VALID,24.7154,VALID,351,VALID,2.92702,
2007-01-30, 10:17:00,VALID,918.173,VALID,0,VALID,71.2264,VALID,378.486,VALID,24.652,VALID,335,VALID,1.89918,
2007-01-30, 10:18:00,VALID,918.175,VALID,0,VALID,70.1989,VALID,468.331,VALID,24.5477,VALID,15,VALID,3.20521,
2007-01-30, 10:19:00,VALID,918.18,VALID,0,VALID,71.4286,VALID,428.919,VALID,24.4114,VALID,10,VALID,2.93732,
2007-01-30, 10:20:00,VALID,918.159,VALID,0,VALID,73.0359,VALID,507.472,VALID,24.3506,VALID,3,VALID,2.15111,
2007-01-30, 10:21:00,VALID,918.146,VALID,0,VALID,72.1661,VALID,666.888,VALID,24.4666,VALID,355,VALID,1.79992,
2007-01-30, 10:22:00,VALID,918.115,VALID,0,VALID,70.8335,VALID,347.699,VALID,24.506,VALID,32,VALID,3.78088,
2007-01-30, 10:23:00,VALID,918.129,VALID,0,VALID,71.6587,VALID,362.354,VALID,24.3706,VALID,23,VALID,2.6276,
2007-01-30, 10:24:00,VALID,918.103,VALID,0,VALID,72.1445,VALID,425.047,VALID,24.2769,VALID,355,VALID,2.13281,
2007-01-30, 10:25:00,VALID,918.101,VALID,0,VALID,72.662,VALID,366.65,VALID,24.2989,VALID,47,VALID,1.2706,
2007-01-30, 10:26:00,VALID,918.098,VALID,0,VALID,71.9169,VALID,356.614,VALID,24.4646,VALID,28,VALID,1.39347,
2007-01-30, 10:27:00,VALID,918.073,VALID,0,VALID,71.6625,VALID,329.904,VALID,24.5574,VALID,8,VALID,2.35444,
2007-01-30, 10:28:00,VALID,918.057,VALID,0,VALID,70.6008,VALID,299.032,VALID,24.474,VALID,20,VALID,1.5865,
2007-01-30, 10:29:00,VALID,918.06,VALID,0,VALID,71.0776,VALID,284.836,VALID,24.4188,VALID,348,VALID,2.38441,
2007-01-30, 10:30:00,VALID,918.049,VALID,0,VALID,71.3472,VALID,276.754,VALID,24.2446,VALID,2,VALID,2.99981,
2007-01-30, 10:31:00,VALID,918.036,VALID,0,VALID,72.2513,VALID,329.751,VALID,24.0382,VALID,351,VALID,2.45629,
2007-01-30, 10:32:00,VALID,918.029,VALID,0,VALID,72.8006,VALID,535.796,VALID,24.0614,VALID,46,VALID,1.90848,
2007-01-30, 10:33:00,VALID,918.031,VALID,0,VALID,72.3301,VALID,517.1,VALID,24.2711,VALID,343,VALID,1.65572,
2007-01-30, 10:34:00,VALID,918.033,VALID,0,VALID,71.173,VALID,437.019,VALID,24.3648,VALID,338,VALID,2.12445,
2007-01-30, 10:35:00,VALID,918.052,VALID,0,VALID,72.3924,VALID,536.764,VALID,24.3941,VALID,20,VALID,2.0334,
2007-01-30, 10:36:00,VALID,918.031,VALID,0,VALID,71.4591,VALID,474.631,VALID,24.4552,VALID,61,VALID,2.74909,
2007-01-30, 10:37:00,VALID,918.037,VALID,0,VALID,72.5133,VALID,391.086,VALID,24.4746,VALID,8,VALID,1.45224,
2007-01-30, 10:38:00,VALID,918.029,VALID,0,VALID,72.7828,VALID,405.349,VALID,24.6009,VALID,338,VALID,2.07273,
2007-01-30, 10:39:00,VALID,918,VALID,0,VALID,71.8457,VALID,302.836,VALID,24.61,VALID,332,VALID,1.83984,
2007-01-30, 10:40:00,VALID,917.997,VALID,0,VALID,70.5067,VALID,549.381,VALID,24.5428,VALID,14,VALID,2.97638,
2007-01-30, 10:41:00,VALID,917.984,VALID,0,VALID,71.1056,VALID,620.531,VALID,24.4561,VALID,23,VALID,2.76618,
2007-01-30, 10:42:00,VALID,917.979,VALID,0,VALID,72.1864,VALID,606.352,VALID,24.5337,VALID,2,VALID,1.67168,
2007-01-30, 10:43:00,VALID,917.946,VALID,0,VALID,70.8487,VALID,607.421,VALID,24.7208,VALID,20,VALID,2.56335,
2007-01-30, 10:44:00,VALID,917.94,VALID,0,VALID,69.675,VALID,546.63,VALID,24.7275,VALID,27,VALID,2.86406,
2007-01-30, 10:45:00,VALID,917.916,VALID,0,VALID,70.5143,VALID,501.342,VALID,24.6765,VALID,327,VALID,2.7957,
2007-01-30, 10:46:00,VALID,917.908,VALID,0,VALID,71.3535,VALID,559.586,VALID,24.7208,VALID,4,VALID,1.45313,
2007-01-30, 10:47:00,VALID,917.901,VALID,0,VALID,70.1048,VALID,565.835,VALID,24.925,VALID,10,VALID,1.59952,
2007-01-30, 10:48:00,VALID,917.88,VALID,0,VALID,70.3185,VALID,547.037,VALID,25.028,VALID,328,VALID,2.61947,
2007-01-30, 10:49:00,VALID,917.877,VALID,0,VALID,70.1442,VALID,537.172,VALID,25.0284,VALID,39,VALID,1.7024,
2007-01-30, 10:50:00,VALID,917.872,VALID,0,VALID,70.3846,VALID,534.064,VALID,25.135,VALID,9,VALID,1.57254,
2007-01-30, 10:51:00,VALID,917.858,VALID,0,VALID,69.2592,VALID,532.077,VALID,25.1667,VALID,36,VALID,1.46205,
2007-01-30, 10:52:00,VALID,917.843,VALID,0,VALID,69.6318,VALID,526.032,VALID,25.3509,VALID,359,VALID,1.26684,
2007-01-30, 10:53:00,VALID,917.826,VALID,0,VALID,69.0087,VALID,522.976,VALID,25.5057,VALID,332,VALID,2.1702,
2007-01-30, 10:54:00,VALID,917.812,VALID,0,VALID,68.4022,VALID,405.689,VALID,25.4385,VALID,326,VALID,2.50465,
2007-01-30, 10:55:00,VALID,917.814,VALID,0,VALID,68.317,VALID,76.2949,VALID,25.2927,VALID,326,VALID,2.23857,
2007-01-30, 10:56:00,VALID,917.803,VALID,0,VALID,69.3584,VALID,226.388,VALID,25.2278,VALID,17,VALID,1.83933,
2007-01-30, 10:57:00,VALID,917.794,VALID,0,VALID,69.8035,VALID,420.87,VALID,25.251,VALID,33,VALID,1.8484,
2007-01-30, 10:58:00,VALID,917.793,VALID,0,VALID,69.7933,VALID,453.507,VALID,25.3667,VALID,10,VALID,1.05412,
2007-01-30, 10:59:00,VALID,917.776,VALID,0,VALID,68.8091,VALID,392.784,VALID,25.4863,VALID,2,VALID,2.96982,
2007-01-30, 11:00:00,VALID,917.773,VALID,0,VALID,67.5591,VALID,376.499,VALID,25.2914,VALID,360,VALID,2.88321,
2007-01-30, 11:01:00,VALID,917.748,VALID,0,VALID,67.4802,VALID,494.397,VALID,25.106,VALID,2,VALID,2.13227,
2007-01-30, 11:02:00,VALID,917.747,VALID,0,VALID,68.0385,VALID,495.874,VALID,24.9738,VALID,31,VALID,3.09063,
2007-01-30, 11:03:00,VALID,917.733,VALID,0,VALID,69.3088,VALID,501.987,VALID,24.9225,VALID,7,VALID,2.3112,
2007-01-30, 11:04:00,VALID,917.721,VALID,0,VALID,68.8841,VALID,514.451,VALID,25.0197,VALID,12,VALID,1.71837,
2007-01-30, 11:05:00,VALID,917.71,VALID,0,VALID,69.1257,VALID,522.959,VALID,25.0669,VALID,28,VALID,1.85454,
2007-01-30, 11:06:00,VALID,917.724,VALID,0,VALID,68.7569,VALID,530.04,VALID,25.1832,VALID,18,VALID,1.65873,
2007-01-30, 11:07:00,VALID,917.713,VALID,0,VALID,67.6875,VALID,532.298,VALID,25.222,VALID,2,VALID,2.57719,
2007-01-30, 11:08:00,VALID,917.724,VALID,0,VALID,67.6583,VALID,532.807,VALID,25.1871,VALID,349,VALID,3.0625,
2007-01-30, 11:09:00,VALID,917.698,VALID,0,VALID,68.4022,VALID,537.868,VALID,25.0711,VALID,10,VALID,2.38263,
2007-01-30, 11:10:00,VALID,917.702,VALID,0,VALID,70.3706,VALID,536.849,VALID,25.0737,VALID,20,VALID,1.71548,
2007-01-30, 11:11:00,VALID,917.684,VALID,0,VALID,69.6725,VALID,537.987,VALID,25.2388,VALID,335,VALID,1.42522,
2007-01-30, 11:12:00,VALID,917.694,VALID,0,VALID,69.1181,VALID,538.156,VALID,25.5522,VALID,4,VALID,0.758345,
2007-01-30, 11:13:00,VALID,917.682,VALID,0,VALID,66.4515,VALID,536.73,VALID,25.7558,VALID,27,VALID,2.58103,
2007-01-30, 11:14:00,VALID,917.684,VALID,0,VALID,67.039,VALID,503.991,VALID,25.73,VALID,17,VALID,1.93877,
2007-01-30, 11:15:00,VALID,917.683,VALID,0,VALID,67.6023,VALID,524.844,VALID,25.7377,VALID,2,VALID,1.72177,
2007-01-30, 11:16:00,VALID,917.672,VALID,0,VALID,66.2481,VALID,439.243,VALID,25.7128,VALID,316,VALID,2.38697,
2007-01-30, 11:17:00,VALID,917.652,VALID,0,VALID,66.6054,VALID,510.325,VALID,25.4892,VALID,326,VALID,2.36788,
2007-01-30, 11:18:00,VALID,917.635,VALID,0,VALID,68.0919,VALID,299.915,VALID,25.3021,VALID,304,VALID,3.49368,
2007-01-30, 11:19:00,VALID,917.657,VALID,0,VALID,69.5619,VALID,106.266,VALID,25.1728,VALID,309,VALID,2.62718,
2007-01-30, 11:20:00,VALID,917.653,VALID,0,VALID,68.7862,VALID,57.7178,VALID,25.0633,VALID,333,VALID,2.09307,
2007-01-30, 11:21:00,VALID,917.658,VALID,0,VALID,69.9357,VALID,49.5161,VALID,24.8891,VALID,344,VALID,1.48884,
2007-01-30, 11:22:00,VALID,917.647,VALID,0,VALID,70.6923,VALID,46.5784,VALID,24.7531,VALID,321,VALID,1.83736,
2007-01-30, 11:23:00,VALID,917.623,VALID,0,VALID,70.4431,VALID,37.9691,VALID,24.5815,VALID,314,VALID,3.07431,
2007-01-30, 11:24:00,VALID,917.649,VALID,0,VALID,70.9797,VALID,147.954,VALID,24.3551,VALID,318,VALID,2.69364,
2007-01-30, 11:25:00,VALID,917.664,VALID,0,VALID,72.0059,VALID,150.145,VALID,24.2585,VALID,333,VALID,1.73011,
2007-01-30, 11:26:00,VALID,917.671,VALID,0,VALID,71.0827,VALID,147.495,VALID,24.1363,VALID,332,VALID,2.52859,
2007-01-30, 11:27:00,VALID,917.679,VALID,0,VALID,71.7986,VALID,160.571,VALID,24.0036,VALID,335,VALID,2.08308,
2007-01-30, 11:28:00,VALID,917.671,VALID,0,VALID,72.0071,VALID,317.525,VALID,23.9586,VALID,338,VALID,3.34395,
2007-01-30, 11:29:00,VALID,917.661,VALID,0,VALID,71.7223,VALID,354.118,VALID,23.9075,VALID,306,VALID,3.15039,
2007-01-30, 11:30:00,VALID,917.691,VALID,0,VALID,72.1877,VALID,361.929,VALID,24.032,VALID,356,VALID,1.95058,
2007-01-30, 11:31:00,VALID,917.681,VALID,0,VALID,71.2175,VALID,351.945,VALID,24.18,VALID,339,VALID,1.79869,
2007-01-30, 11:32:00,VALID,917.679,VALID,0,VALID,71.5939,VALID,261.488,VALID,24.3677,VALID,325,VALID,1.36992,
2007-01-30, 11:33:00,VALID,917.681,VALID,0,VALID,70.2968,VALID,209,VALID,24.5224,VALID,18,VALID,2.13027,
2007-01-30, 11:34:00,VALID,917.662,VALID,0,VALID,70.3363,VALID,281.695,VALID,24.4426,VALID,16,VALID,2.9359,
2007-01-30, 11:35:00,VALID,917.657,VALID,0,VALID,70.2663,VALID,345.39,VALID,24.4065,VALID,10,VALID,1.83943,
2007-01-30, 11:36:00,VALID,917.633,VALID,0,VALID,70.6669,VALID,339.939,VALID,24.4191,VALID,352,VALID,2.36875,
2007-01-30, 11:37:00,VALID,917.629,VALID,0,VALID,71.014,VALID,320.36,VALID,24.4294,VALID,334,VALID,2.13516,
2007-01-30, 11:38:00,VALID,917.629,VALID,0,VALID,70.5957,VALID,322.806,VALID,24.4365,VALID,15,VALID,2.01381,
2007-01-30, 11:39:00,VALID,917.635,VALID,0,VALID,71.1628,VALID,324.334,VALID,24.4655,VALID,345,VALID,2.359,
2007-01-30, 11:40:00,VALID,917.64,VALID,0,VALID,70.8907,VALID,327.611,VALID,24.5105,VALID,330,VALID,2.32497,
2007-01-30, 11:41:00,VALID,917.612,VALID,0,VALID,70.1099,VALID,330.277,VALID,24.4785,VALID,307,VALID,1.20821,
2007-01-30, 11:42:00,VALID,917.609,VALID,0,VALID,69.7869,VALID,325.845,VALID,24.6112,VALID,49,VALID,1.21168,
2007-01-30, 11:43:00,VALID,917.611,VALID,0,VALID,70.2803,VALID,318.136,VALID,24.7757,VALID,311,VALID,1.77623,
2007-01-30, 11:44:00,VALID,917.576,VALID,0,VALID,70.5931,VALID,311.344,VALID,24.7725,VALID,314,VALID,2.125,
2007-01-30, 11:45:00,VALID,917.578,VALID,0,VALID,69.6992,VALID,305.842,VALID,24.8116,VALID,336,VALID,2.12393,
2007-01-30, 11:46:00,VALID,917.542,VALID,0,VALID,71.0763,VALID,301.461,VALID,24.8142,VALID,298,VALID,2.12957,
2007-01-30, 11:47:00,VALID,917.55,VALID,0,VALID,69.703,VALID,297.012,VALID,24.9505,VALID,356,VALID,1.65044,
2007-01-30, 11:48:00,VALID,917.517,VALID,0,VALID,69.0341,VALID,294.431,VALID,25.0384,VALID,333,VALID,1.72175,
2007-01-30, 11:49:00,VALID,917.51,VALID,0,VALID,69.2681,VALID,293.666,VALID,25.009,VALID,341,VALID,2.29148,
2007-01-30, 11:50:00,VALID,917.535,VALID,0,VALID,69.6458,VALID,290.219,VALID,24.9049,VALID,317,VALID,1.64901,
2007-01-30, 11:51:00,VALID,917.541,VALID,0,VALID,69.5975,VALID,288.029,VALID,24.8177,VALID,1,VALID,2.23224,